This demonstration page uses our WeatherBlox Daily Observations layout. Learn more.

Hourly Observations for June 23, 2019

Temp ( °F °C ) Dew Point ( °F °C ) Humidity (%) Winds ( mph kmh ) Pressure ( in mb ) Visibility ( mi km ) Precip ( " mm )
12:15 am 00:15 Clear 63 17 57 14 83 83 Calm 30.09 1019 10 16.09344 0 0
12:35 am 00:35 Clear 63 17 55 13 77 77 Calm 30.09 1019 10 16.09344 0 0
12:55 am 00:55 Partly Cloudy 63 17 55 13 77 77 Calm 30.09 1019 10 16.09344 0 0
1:15 am 01:15 Clear 63 17 55 13 77 77 NNE 5 7 30.09 1019 10 16.09344 0 0
1:55 am 01:55 Clear 61 16 57 14 88 88 Calm 30.09 1019 10 16.09344 0 0
2:15 am 02:15 Clear 61 16 57 14 88 88 Calm 30.09 1019 10 16.09344 0 0
2:35 am 02:35 Clear 59 15 57 14 94 94 Calm 30.09 1019 10 16.09344 0 0
2:55 am 02:55 Clear 59 15 57 14 94 94 Calm 30.09 1019 10 16.09344 0 0
3:15 am 03:15 Clear 59 15 55 13 88 88 N 3 6 30.09 1019 10 16.09344 0 0
3:35 am 03:35 Clear 59 15 55 13 88 88 NNE 5 7 30.09 1019 10 16.09344 0 0
3:55 am 03:55 Clear 61 16 55 13 83 83 Calm 30.09 1019 10 16.09344 0 0
4:15 am 04:15 Clear 55 13 55 13 100 100 Calm 30.09 1019 10 16.09344 0 0
4:35 am 04:35 Clear 55 13 55 13 100 100 N 3 6 30.09 1019 10 16.09344 0 0
4:55 am 04:55 Clear 55 13 55 13 100 100 Calm 30.09 1019 10 16.09344 0 0
5:15 am 05:15 Clear 57 14 55 13 94 94 N 3 6 30.09 1019 10 16.09344 0 0
5:35 am 05:35 Clear 54 12 54 12 100 100 Calm 30.09 1019 10 16.09344 0 0
5:55 am 05:55 Sunny 54 12 54 12 100 100 Calm 30.12 1020 10 16.09344 0 0
6:15 am 06:15 Sunny 55 13 55 13 100 100 Calm 30.12 1020 10 16.09344 0 0
6:35 am 06:35 Sunny 55 13 55 13 100 100 NW 3 6 30.12 1020 10 16.09344 0 0
6:55 am 06:55 Sunny 59 15 55 13 88 88 Calm 30.12 1020 10 16.09344 0 0
7:15 am 07:15 Sunny 61 16 57 14 88 88 Calm 30.12 1020 10 16.09344 0 0
7:35 am 07:35 Sunny 63 17 59 15 88 88 Calm 30.12 1020 10 16.09344 0 0
7:55 am 07:55 Sunny 66 19 59 15 78 78 Calm 30.12 1020 10 16.09344 0 0
8:15 am 08:15 Sunny 68 20 59 15 73 73 Calm 30.15 1021 10 16.09344 0 0
8:35 am 08:35 Sunny 72 22 59 15 65 65 Calm 30.12 1020 10 16.09344 0 0
8:55 am 08:55 Sunny 72 22 57 14 61 61 Calm 30.12 1020 10 16.09344 0 0
9:15 am 09:15 Sunny 73 23 55 13 53 53 Calm 30.12 1020 10 16.09344 0 0
9:35 am 09:35 Sunny 75 24 55 13 50 50 N 6 9 30.12 1020 10 16.09344 0 0
9:55 am 09:55 Sunny 75 24 54 12 47 47 N 6 9 30.12 1020 10 16.09344 0 0
10:15 am 10:15 Sunny 77 25 54 12 44 44 E 5 7 30.12 1020 10 16.09344 0 0
10:35 am 10:35 Sunny 77 25 54 12 44 44 Calm 30.12 1020 10 16.09344 0 0
10:55 am 10:55 Sunny 77 25 54 12 44 44 N 5 7 30.09 1019 10 16.09344 0 0
11:15 am 11:15 Sunny 77 25 52 11 42 42 Calm 30.09 1019 10 16.09344 0 0
11:35 am 11:35 Sunny 79 26 52 11 39 39 Calm 30.09 1019 10 16.09344 0 0
11:55 am 11:55 Sunny 79 26 54 12 42 42 Calm 30.09 1019 10 16.09344 0 0
12:15 pm 12:15 Sunny 81 27 54 12 39 39 W 3 6 30.09 1019 10 16.09344 0 0
12:35 pm 12:35 Sunny 81 27 55 13 42 42 Calm 30.06 1018 10 16.09344 0 0
12:55 pm 12:55 Sunny 81 27 54 12 39 39 Calm 30.06 1018 10 16.09344 0 0
1:15 pm 13:15 Sunny 81 27 54 12 39 39 NNW 3 6 30.06 1018 10 16.09344 0 0
1:35 pm 13:35 Sunny 82 28 55 13 40 40 SSW 9 15 30.06 1018 10 16.09344 0 0
1:55 pm 13:55 Sunny 82 28 55 13 40 40 SSE 6 9 30.06 1018 10 16.09344 0 0
2:15 pm 14:15 Sunny 82 28 55 13 40 40 W 6 9 30.03 1017 10 16.09344 0 0
2:35 pm 14:35 Sunny 82 28 54 12 37 37 SSE 3 6 30.03 1017 10 16.09344 0 0
2:55 pm 14:55 Sunny 82 28 55 13 40 40 WNW 9 15 30.03 1017 10 16.09344 0 0
3:15 pm 15:15 Sunny 82 28 55 13 40 40 W 9 15 30.03 1017 10 16.09344 0 0
3:35 pm 15:35 Sunny 84 29 55 13 37 37 W 8 13 30.03 1017 10 16.09344 0 0
3:55 pm 15:55 Sunny 82 28 57 14 42 42 SSW 7 11 30.03 1017 10 16.09344 0 0
4:15 pm 16:15 Sunny 84 29 57 14 40 40 WSW 7 11 30.03 1017 10 16.09344 0 0
4:35 pm 16:35 Sunny 86 30 57 14 38 38 SW 8 13 30 1016 10 16.09344 0 0
4:55 pm 16:55 Sunny 84 29 55 13 37 37 SSW 5 7 30 1016 10 16.09344 0 0
5:15 pm 17:15 Sunny 84 29 55 13 37 37 SSW 6 9 30 1016 10 16.09344 0 0
5:35 pm 17:35 Sunny 84 29 57 14 40 40 SW 5 7 30 1016 10 16.09344 0 0
5:55 pm 17:55 Sunny 84 29 57 14 40 40 S 9 15 29.97 1015 10 16.09344 0 0
6:15 pm 18:15 Sunny 84 29 57 14 40 40 S 5 7 29.97 1015 10 16.09344 0 0
6:35 pm 18:35 Sunny 82 28 57 14 42 42 S 6 9 29.97 1015 10 16.09344 0 0
6:55 pm 18:55 Sunny 84 29 59 15 43 43 SSW 6 9 29.97 1015 10 16.09344 0 0
7:15 pm 19:15 Sunny 82 28 59 15 45 45 S 5 7 29.97 1015 10 16.09344 0 0
7:35 pm 19:35 Sunny 82 28 61 16 48 48 SW 6 9 29.97 1015 10 16.09344 0 0
7:55 pm 19:55 Sunny 81 27 61 16 51 51 SSE 6 9 29.97 1015 10 16.09344 0 0
8:15 pm 20:15 Sunny 79 26 61 16 54 54 SSE 6 9 29.97 1015 10 16.09344 0 0
8:35 pm 20:35 Sunny 79 26 61 16 54 54 S 6 9 29.97 1015 10 16.09344 0 0
8:55 pm 20:55 Clear 77 25 61 16 57 57 S 5 7 29.97 1015 10 16.09344 0 0
9:15 pm 21:15 Clear 77 25 61 16 57 57 S 5 7 29.97 1015 10 16.09344 0 0
9:55 pm 21:55 Clear 73 23 61 16 65 65 S 6 9 29.97 1015 10 16.09344 0 0
10:15 pm 22:15 Clear 73 23 61 16 65 65 SSW 6 9 29.97 1015 10 16.09344 0 0
10:35 pm 22:35 Clear 72 22 61 16 69 69 S 6 9 29.97 1015 10 16.09344 0 0
10:55 pm 22:55 Clear 72 22 61 16 69 69 S 5 7 29.97 1015 10 16.09344 0 0
11:15 pm 23:15 Clear 72 22 61 16 69 69 SSW 5 7 29.97 1015 10 16.09344 0 0
11:35 pm 23:35 Clear 70 21 63 17 78 78 SW 3 6 29.97 1015 10 16.09344 0 0
11:55 pm 23:55 Clear 70 21 63 17 78 78 SSW 5 7 29.97 1015 10 16.09344 0 0

Powered by AerisWeather